sat.trackr.live / text

‹ back to catalog

HULIANWANG DIGUI-131

NORAD 67239 · 2025-311D

PAYLOAD ACTIVE UNKNOWN

§ Identity

Operator
Country
PRC
Launch date
2025-12-25
Launch site
WSC
Launch vehicle
Mass (kg)
RCS (m²)

External: N2YO · Heavens-Above · Gunter

§ Orbital elements

Epoch: 2026-05-25T04:09:50.145984Z

Period
108.33 min
Inclination
50.0035°
Eccentricity
0.0001041
Mean motion
13.29322394 rev/d
Perigee alt
1,148.5 km
Apogee alt
1,150.1 km
Semi-major
7,527.5 km
B*
6.0821e-5
RAAN
198.6154°
Arg perigee
248.4398°
Mean anomaly
111.6364°
Rev number
2,027

§ Raw data

HULIANWANG DIGUI-1311 67239U 25311D   26145.17349706 -.00000096  00000+0  60821-4 0  99902 67239  50.0035 198.6154 0001041 248.4398 111.6364 13.29322394 20271

JSON: /api/v1/satellites/67239 · /tle

For live sub-satellite position, see the globe view (requires WebGL).

§ Visibility from observer

Set your observer location to see the next 7 days of passes ≥ 10°. The values pass through the URL so the page stays shareable.

No JS? Fill the form by hand. The geolocation button needs JavaScript.